N850CB KPHX-KSAN

Flight info

Callsign N850CB
Flight time 0h 56m
Altitude 37000
Route FYRBD1 MOHAK J2 HOGGZ LUCKI1
Aircraft C700/L-SDE2E3FGHUTRWXY/LB1

Departure

Time 2026-04-26 03:44
Airport Phoenix Sky Harbor International Airport (KPHX)

Arrival

Time 2026-04-26 04:40
Airport San Diego International Airport (KSAN)
Time Latitude Longitude Altitude Speed Heading
2026-04-26 03:36 33.44241 -112.00045 1123 ft 0 kts 180°
2026-04-26 03:38 33.44232 -112.00042 1123 ft 6 kts 153°
2026-04-26 03:38 33.44191 -111.99902 1127 ft 28 kts 83°
2026-04-26 03:39 33.44194 -111.99629 1128 ft 36 kts 90°
2026-04-26 03:39 33.44194 -111.99408 1128 ft 20 kts 91°
2026-04-26 03:39 33.44192 -111.99271 1128 ft 7 kts 92°
2026-04-26 03:39 33.44187 -111.99256 1128 ft 0 kts 117°
2026-04-26 03:41 33.44179 -111.99243 1121 ft 0 kts 129°
2026-04-26 03:41 33.44141 -111.99229 1134 ft 13 kts 180°
2026-04-26 03:41 33.44082 -111.99285 1132 ft 10 kts 270°
2026-04-26 03:41 33.44082 -111.99295 1132 ft 1 kts 271°
2026-04-26 03:42 33.44083 -111.99308 1132 ft 0 kts 271°
2026-04-26 03:43 33.44083 -111.99332 1132 ft 8 kts 271°
2026-04-26 03:43 33.44084 -111.99654 1132 ft 89 kts 270°
2026-04-26 03:44 33.44095 -112.00767 1265 ft 170 kts 271°
2026-04-26 03:44 33.44120 -112.02388 1808 ft 228 kts 270°
2026-04-26 03:44 33.44064 -112.04409 2068 ft 228 kts 259°
2026-04-26 03:44 33.43398 -112.05999 2643 ft 205 kts 234°
2026-04-26 03:45 33.42532 -112.07411 3243 ft 225 kts 238°
2026-04-26 03:45 33.41828 -112.09179 3869 ft 257 kts 251°
2026-04-26 03:45 33.41257 -112.11448 4536 ft 307 kts 254°
2026-04-26 03:45 33.40462 -112.13788 5136 ft 302 kts 237°
2026-04-26 03:46 33.39059 -112.15648 6176 ft 314 kts 220°
2026-04-26 03:46 33.37096 -112.16906 7910 ft 325 kts 201°
2026-04-26 03:46 33.34845 -112.17288 10088 ft 330 kts 181°
2026-04-26 03:47 33.30352 -112.16987 14426 ft 309 kts 194°
2026-04-26 03:47 33.28486 -112.17742 16433 ft 284 kts 211°
2026-04-26 03:47 33.26975 -112.19088 18584 ft 259 kts 228°
2026-04-26 03:47 33.25878 -112.20678 20406 ft 244 kts 233°
2026-04-26 03:48 33.24748 -112.22374 20771 ft 282 kts 234°
2026-04-26 03:48 33.23479 -112.24339 20794 ft 309 kts 234°
2026-04-26 03:48 33.22136 -112.26449 20791 ft 329 kts 234°
2026-04-26 03:48 33.20700 -112.28671 20791 ft 346 kts 234°
2026-04-26 03:49 33.19205 -112.30990 20786 ft 358 kts 234°
2026-04-26 03:49 33.17674 -112.33372 20781 ft 365 kts 234°
2026-04-26 03:49 33.16116 -112.35790 20772 ft 370 kts 234°
2026-04-26 03:49 33.14535 -112.38239 20755 ft 374 kts 234°
2026-04-26 03:50 33.12968 -112.40662 21369 ft 361 kts 234°
2026-04-26 03:50 33.11446 -112.43018 22287 ft 356 kts 234°
2026-04-26 03:50 33.09930 -112.45363 23212 ft 358 kts 234°
2026-04-26 03:50 33.08403 -112.47718 24030 ft 359 kts 234°
2026-04-26 03:51 33.06876 -112.50078 24846 ft 360 kts 234°
2026-04-26 03:51 33.05364 -112.52415 25668 ft 361 kts 234°
2026-04-26 03:51 33.03829 -112.54784 26563 ft 360 kts 234°
2026-04-26 03:51 33.02300 -112.57141 27460 ft 358 kts 234°
2026-04-26 03:52 33.00784 -112.59478 28378 ft 356 kts 234°
2026-04-26 03:52 32.99274 -112.61806 29338 ft 353 kts 234°
2026-04-26 03:52 32.97907 -112.64211 30240 ft 349 kts 239°
2026-04-26 03:52 32.96759 -112.66743 31087 ft 345 kts 244°
2026-04-26 03:53 32.95837 -112.69357 31948 ft 340 kts 248°
2026-04-26 03:53 32.95139 -112.72026 32840 ft 335 kts 252°
2026-04-26 03:53 32.94662 -112.74720 33760 ft 330 kts 256°
2026-04-26 03:53 32.94314 -112.77396 34571 ft 322 kts 256°
2026-04-26 03:54 32.93959 -112.79991 35398 ft 314 kts 256°
2026-04-26 03:54 32.93610 -112.82540 36248 ft 308 kts 256°
2026-04-26 03:54 32.93270 -112.85048 36808 ft 312 kts 256°
2026-04-26 03:54 32.92913 -112.87662 36800 ft 328 kts 257°
2026-04-26 03:55 32.92544 -112.90384 36811 ft 338 kts 257°
2026-04-26 03:55 32.91780 -112.96024 36799 ft 356 kts 257°
2026-04-26 03:56 32.90969 -113.01971 36794 ft 370 kts 257°
2026-04-26 03:56 32.90137 -113.08076 36782 ft 377 kts 257°
2026-04-26 03:57 32.89284 -113.14291 36769 ft 384 kts 257°
2026-04-26 03:57 32.88416 -113.20585 36772 ft 384 kts 257°
2026-04-26 03:57 32.87993 -113.23670 36761 ft 373 kts 257°
2026-04-26 03:58 32.87568 -113.26719 36760 ft 373 kts 257°
2026-04-26 03:58 32.86718 -113.32823 36760 ft 374 kts 257°
2026-04-26 03:59 32.85866 -113.38936 36761 ft 375 kts 257°
2026-04-26 03:59 32.85010 -113.45049 36761 ft 375 kts 257°
2026-04-26 04:00 32.84156 -113.51131 36765 ft 375 kts 257°
2026-04-26 04:00 32.83293 -113.57252 36761 ft 375 kts 257°
2026-04-26 04:01 32.82426 -113.63371 36771 ft 376 kts 257°
2026-04-26 04:01 32.81555 -113.69505 36771 ft 376 kts 257°
2026-04-26 04:02 32.80682 -113.75634 36783 ft 376 kts 257°
2026-04-26 04:02 32.79811 -113.81731 36782 ft 376 kts 257°
2026-04-26 04:03 32.78931 -113.87863 36793 ft 377 kts 257°
2026-04-26 04:03 32.78046 -113.94014 36794 ft 377 kts 257°
2026-04-26 04:04 32.77551 -114.00248 36791 ft 382 kts 264°
2026-04-26 04:04 32.77498 -114.06567 36807 ft 383 kts 264°
2026-04-26 04:05 32.77741 -114.12920 36793 ft 384 kts 266°
2026-04-26 04:05 32.77980 -114.19264 36802 ft 385 kts 267°
2026-04-26 04:06 32.78240 -114.25607 36799 ft 384 kts 267°
2026-04-26 04:06 32.78484 -114.31962 36810 ft 385 kts 267°
2026-04-26 04:07 32.78969 -114.38280 36807 ft 390 kts 273°
2026-04-26 04:07 32.80386 -114.44566 36803 ft 397 kts 280°
2026-04-26 04:08 32.82104 -114.50810 36804 ft 397 kts 279°
2026-04-26 04:08 32.83819 -114.57057 36806 ft 398 kts 280°
2026-04-26 04:09 32.85536 -114.63311 36827 ft 398 kts 279°
2026-04-26 04:09 32.87117 -114.69589 36823 ft 392 kts 275°
2026-04-26 04:10 32.87804 -114.75958 36814 ft 384 kts 266°
2026-04-26 04:10 32.87792 -114.79126 36660 ft 384 kts 263°
2026-04-26 04:10 32.87718 -114.82252 36103 ft 380 kts 263°
2026-04-26 04:10 32.87657 -114.85368 35606 ft 374 kts 263°
2026-04-26 04:11 32.87592 -114.88430 35117 ft 367 kts 263°
2026-04-26 04:11 32.87522 -114.91449 34636 ft 362 kts 262°
2026-04-26 04:11 32.87452 -114.94421 34165 ft 357 kts 262°
2026-04-26 04:11 32.87386 -114.97351 33812 ft 350 kts 262°
2026-04-26 04:12 32.87259 -115.02937 33266 ft 333 kts 261°
2026-04-26 04:12 32.87192 -115.05675 32854 ft 329 kts 261°
2026-04-26 04:12 32.87126 -115.08376 32403 ft 326 kts 261°
2026-04-26 04:13 32.87061 -115.11063 31919 ft 324 kts 261°
2026-04-26 04:13 32.86997 -115.13735 31468 ft 322 kts 261°
2026-04-26 04:13 32.86933 -115.16390 31026 ft 320 kts 261°
2026-04-26 04:13 32.86868 -115.19025 30591 ft 318 kts 261°
2026-04-26 04:14 32.86802 -115.21645 30162 ft 316 kts 261°
2026-04-26 04:14 32.86738 -115.24244 29707 ft 312 kts 261°
2026-04-26 04:14 32.86676 -115.26785 29206 ft 303 kts 261°
2026-04-26 04:14 32.86612 -115.29276 28710 ft 300 kts 261°
2026-04-26 04:15 32.86547 -115.31737 28291 ft 295 kts 261°
2026-04-26 04:15 32.86447 -115.34139 28093 ft 284 kts 258°
2026-04-26 04:15 32.86164 -115.36434 27731 ft 277 kts 254°
2026-04-26 04:15 32.85843 -115.38675 27372 ft 273 kts 255°
2026-04-26 04:16 32.85538 -115.40892 27020 ft 270 kts 255°
2026-04-26 04:16 32.85235 -115.43078 26670 ft 267 kts 254°
2026-04-26 04:16 32.84929 -115.45248 26317 ft 264 kts 254°
2026-04-26 04:16 32.84626 -115.47389 25972 ft 262 kts 254°
2026-04-26 04:17 32.84317 -115.49498 25851 ft 252 kts 253°
2026-04-26 04:17 32.83990 -115.51497 25843 ft 241 kts 253°
2026-04-26 04:17 32.83675 -115.53425 25696 ft 235 kts 252°
2026-04-26 04:17 32.83358 -115.55351 25417 ft 244 kts 252°
2026-04-26 04:18 32.83007 -115.57433 25119 ft 272 kts 253°
2026-04-26 04:18 32.82648 -115.59661 24765 ft 276 kts 253°
2026-04-26 04:18 32.82287 -115.61911 24410 ft 279 kts 253°
2026-04-26 04:18 32.81916 -115.64181 24103 ft 281 kts 253°
2026-04-26 04:19 32.81537 -115.66475 23730 ft 284 kts 253°
2026-04-26 04:19 32.81156 -115.68796 23158 ft 286 kts 254°
2026-04-26 04:19 32.80781 -115.71099 22490 ft 281 kts 254°
2026-04-26 04:19 32.80409 -115.73360 21833 ft 278 kts 253°
2026-04-26 04:20 32.80035 -115.75614 21196 ft 278 kts 254°
2026-04-26 04:20 32.79663 -115.77870 20567 ft 278 kts 254°
2026-04-26 04:20 32.79291 -115.80126 19955 ft 278 kts 254°
2026-04-26 04:20 32.78917 -115.82387 19380 ft 278 kts 254°
2026-04-26 04:21 32.78553 -115.84641 18905 ft 278 kts 256°
2026-04-26 04:21 32.78362 -115.86933 18434 ft 278 kts 259°
2026-04-26 04:21 32.78198 -115.89216 17948 ft 277 kts 259°
2026-04-26 04:21 32.78020 -115.91495 17413 ft 276 kts 259°
2026-04-26 04:22 32.77849 -115.93766 16888 ft 276 kts 259°
2026-04-26 04:22 32.77680 -115.96034 16341 ft 275 kts 260°
2026-04-26 04:22 32.77511 -115.98300 15845 ft 275 kts 260°
2026-04-26 04:22 32.77342 -116.00567 15351 ft 275 kts 260°
2026-04-26 04:23 32.77172 -116.02825 14884 ft 273 kts 260°
2026-04-26 04:23 32.77003 -116.05067 14405 ft 271 kts 260°
2026-04-26 04:23 32.76834 -116.07291 13933 ft 270 kts 260°
2026-04-26 04:23 32.76667 -116.09502 13441 ft 268 kts 260°
2026-04-26 04:24 32.76501 -116.11674 12925 ft 266 kts 259°
2026-04-26 04:24 32.76335 -116.13862 12447 ft 265 kts 259°
2026-04-26 04:24 32.76169 -116.16037 11950 ft 264 kts 259°
2026-04-26 04:24 32.76011 -116.18143 11896 ft 247 kts 259°
2026-04-26 04:25 32.75864 -116.20107 11887 ft 231 kts 259°
2026-04-26 04:25 32.75720 -116.21957 11877 ft 218 kts 258°
2026-04-26 04:25 32.75585 -116.23708 11889 ft 215 kts 258°
2026-04-26 04:25 32.75430 -116.25556 11881 ft 233 kts 259°
2026-04-26 04:26 32.75278 -116.27519 11910 ft 244 kts 260°
2026-04-26 04:26 32.75124 -116.29569 11912 ft 254 kts 261°
2026-04-26 04:26 32.74961 -116.31700 11910 ft 265 kts 261°
2026-04-26 04:26 32.74788 -116.33915 11883 ft 274 kts 261°
2026-04-26 04:27 32.74610 -116.36201 11637 ft 280 kts 261°
2026-04-26 04:27 32.74434 -116.38503 11424 ft 277 kts 261°
2026-04-26 04:27 32.74259 -116.40772 11176 ft 275 kts 261°
2026-04-26 04:27 32.74083 -116.43014 10927 ft 272 kts 260°
2026-04-26 04:28 32.73906 -116.45253 10514 ft 274 kts 260°
2026-04-26 04:28 32.73725 -116.47531 10036 ft 279 kts 260°
2026-04-26 04:28 32.73546 -116.49816 9531 ft 274 kts 261°
2026-04-26 04:28 32.73338 -116.52037 9041 ft 268 kts 259°
2026-04-26 04:29 32.73126 -116.54223 8536 ft 265 kts 260°
2026-04-26 04:29 32.72991 -116.55658 8227 ft 263 kts 260°
2026-04-26 04:29 32.72789 -116.57741 7750 ft 237 kts 262°
2026-04-26 04:29 32.72594 -116.59743 7305 ft 250 kts 263°
2026-04-26 04:30 32.72409 -116.61655 6616 ft 218 kts 264°
2026-04-26 04:30 32.72241 -116.63391 5811 ft 214 kts 264°
2026-04-26 04:30 32.72049 -116.65221 5037 ft 233 kts 258°
2026-04-26 04:30 32.71334 -116.66979 4222 ft 230 kts 236°
2026-04-26 04:31 32.70379 -116.68361 3974 ft 210 kts 230°
2026-04-26 04:31 32.69434 -116.69657 3961 ft 210 kts 231°
2026-04-26 04:31 32.68465 -116.70986 3971 ft 217 kts 231°
2026-04-26 04:31 32.67464 -116.72373 3972 ft 226 kts 231°
2026-04-26 04:32 32.66424 -116.73810 3979 ft 233 kts 231°
2026-04-26 04:32 32.65405 -116.75255 3973 ft 227 kts 234°
2026-04-26 04:32 32.64904 -116.76929 3961 ft 212 kts 268°
2026-04-26 04:32 32.65103 -116.78617 4129 ft 207 kts 280°
2026-04-26 04:33 32.65407 -116.80302 4522 ft 211 kts 281°
2026-04-26 04:33 32.65726 -116.81996 4905 ft 209 kts 281°
2026-04-26 04:33 32.66060 -116.83713 4971 ft 216 kts 281°
2026-04-26 04:33 32.66381 -116.85398 4968 ft 202 kts 281°
2026-04-26 04:34 32.66684 -116.86981 4876 ft 194 kts 281°
2026-04-26 04:34 32.66977 -116.88574 4495 ft 201 kts 281°
2026-04-26 04:34 32.67272 -116.90232 4183 ft 207 kts 280°
2026-04-26 04:34 32.67558 -116.91852 4179 ft 195 kts 281°
2026-04-26 04:35 32.67830 -116.93357 4170 ft 183 kts 281°
2026-04-26 04:35 32.68096 -116.94795 4167 ft 168 kts 281°
2026-04-26 04:35 32.68336 -116.96079 4161 ft 155 kts 281°
2026-04-26 04:35 32.68556 -116.97288 4170 ft 148 kts 281°
2026-04-26 04:36 32.68772 -116.98463 4176 ft 144 kts 281°
2026-04-26 04:36 32.68934 -116.99613 4172 ft 138 kts 274°
2026-04-26 04:36 32.69104 -117.00720 4171 ft 136 kts 285°
2026-04-26 04:36 32.69424 -117.01786 4189 ft 137 kts 284°
2026-04-26 04:37 32.69686 -117.02892 4192 ft 140 kts 281°
2026-04-26 04:37 32.69928 -117.04036 4188 ft 147 kts 281°
2026-04-26 04:37 32.70176 -117.05242 4190 ft 153 kts 281°
2026-04-26 04:37 32.70413 -117.06432 4060 ft 165 kts 281°
2026-04-26 04:38 32.70711 -117.07963 3505 ft 196 kts 281°
2026-04-26 04:38 32.71027 -117.09621 2889 ft 205 kts 281°
2026-04-26 04:38 32.71300 -117.11016 2539 ft 166 kts 281°
2026-04-26 04:38 32.71565 -117.12367 1646 ft 157 kts 281°
2026-04-26 04:39 32.71889 -117.13520 997 ft 136 kts 290°
2026-04-26 04:39 32.72239 -117.14534 772 ft 126 kts 288°
2026-04-26 04:39 32.72508 -117.15491 545 ft 119 kts 283°
2026-04-26 04:39 32.72725 -117.16431 300 ft 118 kts 284°
2026-04-26 04:40 32.72961 -117.17349 145 ft 116 kts 285°
2026-04-26 04:40 32.73183 -117.18263 32 ft 109 kts 284°
2026-04-26 04:40 32.73334 -117.18889 19 ft 39 kts 289°
2026-04-26 04:40 32.73379 -117.19111 18 ft 18 kts 253°
2026-04-26 04:41 32.73337 -117.19161 19 ft 9 kts 212°
2026-04-26 04:41 32.73326 -117.19170 18 ft 0 kts 218°
2026-04-26 04:42 32.73325 -117.19171 18 ft 0 kts 218°
2026-04-26 04:42 32.73292 -117.19127 21 ft 19 kts 102°
2026-04-26 04:42 32.73264 -117.19004 21 ft 10 kts 105°
2026-04-26 04:43 32.73241 -117.18888 21 ft 10 kts 81°
2026-04-26 04:43 32.73248 -117.18871 22 ft 1 kts 55°
2026-04-26 04:43 32.73329 -117.18831 19 ft 27 kts 11°
2026-04-26 04:43 32.73423 -117.18771 21 ft 16 kts 90°
2026-04-26 04:44 32.73376 -117.18574 21 ft 31 kts 106°
2026-04-26 04:44 32.73318 -117.18335 21 ft 37 kts 106°
2026-04-26 04:44 32.73258 -117.18081 21 ft 26 kts 105°
2026-04-26 04:44 32.73270 -117.17981 22 ft 12 kts 30°
2026-04-26 04:45 32.73384 -117.17944 24 ft 15 kts 14°
2026-04-26 04:45 32.73433 -117.17962 24 ft 0 kts 284°